NOAA 20 [+]

Last updated on Fri Dec 29 2023 00:02:19 GMT+0000 (Coordinated Universal Time)

1 43013U 17073A 23362.44808611 .00000160 00000+0 96626-4 0 9996 2 43013 98.7331 297.9536 0000783 57.5916 302.5335 14.19555620316533
UTC large
Height (km)
Speed (km/s)
/
Latitude / Longitude
Inclination (degrees)
Orbital Period (minutes)
Azimuth
Elevation
Range (km)
Doppler Factor

Next 0 passes for location: London (51.5072 / 0.1276)

Sorry there are no passes over London.